Year,Month,Day,Hour,Minute,Value (Times are PST for temperature in C)
2017,07,17,00,00,13.80
2017,07,17,00,01,13.80
2017,07,17,00,02,13.80
2017,07,17,00,03,13.80
2017,07,17,00,04,13.80
2017,07,17,00,05,13.80
2017,07,17,00,06,13.70
2017,07,17,00,07,13.70
2017,07,17,00,08,13.70
2017,07,17,00,09,13.70
2017,07,17,00,10,13.70
2017,07,17,00,11,13.70
2017,07,17,00,12,13.60
2017,07,17,00,13,13.60
2017,07,17,00,14,13.60
2017,07,17,00,15,13.60
2017,07,17,00,16,13.60
2017,07,17,00,17,13.50
2017,07,17,00,18,13.50
2017,07,17,00,19,13.40
2017,07,17,00,20,13.40
2017,07,17,00,21,13.40
2017,07,17,00,22,13.30
2017,07,17,00,23,13.30
2017,07,17,00,24,13.30
2017,07,17,00,25,13.20
2017,07,17,00,26,13.20
2017,07,17,00,27,13.10
2017,07,17,00,28,13.10
2017,07,17,00,29,13.10
2017,07,17,00,30,13.10
2017,07,17,00,31,13.10
2017,07,17,00,32,13.10
2017,07,17,00,33,13.10
2017,07,17,00,34,13.10
2017,07,17,00,35,13.00
2017,07,17,00,36,13.00
2017,07,17,00,37,13.00
2017,07,17,00,38,13.00
2017,07,17,00,39,13.00
2017,07,17,00,40,13.00
2017,07,17,00,41,12.90
2017,07,17,00,42,12.90
2017,07,17,00,43,12.90
2017,07,17,00,44,12.90
2017,07,17,00,45,12.80
2017,07,17,00,46,12.80
2017,07,17,00,47,12.80
2017,07,17,00,48,12.80
2017,07,17,00,49,12.80
2017,07,17,00,50,12.80
2017,07,17,00,51,12.80
2017,07,17,00,52,12.80
2017,07,17,00,53,12.80
2017,07,17,00,54,12.80
2017,07,17,00,55,12.80
2017,07,17,00,56,12.80
2017,07,17,00,57,12.70
2017,07,17,00,58,12.70
2017,07,17,00,59,12.70
2017,07,17,01,00,12.70
2017,07,17,01,01,12.70
2017,07,17,01,02,12.70
2017,07,17,01,03,12.70
2017,07,17,01,04,12.70
2017,07,17,01,05,12.70
2017,07,17,01,06,12.70
2017,07,17,01,07,12.70
2017,07,17,01,08,12.70
2017,07,17,01,09,12.70
2017,07,17,01,10,12.70
2017,07,17,01,11,12.70
2017,07,17,01,12,12.70
2017,07,17,01,13,12.70
2017,07,17,01,14,12.70
2017,07,17,01,15,12.70
2017,07,17,01,16,12.70
2017,07,17,01,17,12.70
2017,07,17,01,18,12.70
2017,07,17,01,19,12.70
2017,07,17,01,20,12.60
2017,07,17,01,21,12.60
2017,07,17,01,22,12.60
2017,07,17,01,23,12.60
2017,07,17,01,24,12.60
2017,07,17,01,25,12.60
2017,07,17,01,26,12.60
2017,07,17,01,27,12.60
2017,07,17,01,28,12.60
2017,07,17,01,29,12.60
2017,07,17,01,30,12.60
2017,07,17,01,31,12.60
2017,07,17,01,32,12.60
2017,07,17,01,33,12.50
2017,07,17,01,34,12.50
2017,07,17,01,35,12.50
2017,07,17,01,36,12.40
2017,07,17,01,37,12.40
2017,07,17,01,38,12.40
2017,07,17,01,39,12.40
2017,07,17,01,40,12.40
2017,07,17,01,41,12.40
2017,07,17,01,42,12.40
2017,07,17,01,43,12.30
2017,07,17,01,44,12.30
2017,07,17,01,45,12.30
2017,07,17,01,46,12.30
2017,07,17,01,47,12.30
2017,07,17,01,48,12.30
2017,07,17,01,49,12.30
2017,07,17,01,50,12.30
2017,07,17,01,51,12.30
2017,07,17,01,52,12.30
2017,07,17,01,53,12.30
2017,07,17,01,54,12.30
2017,07,17,01,55,12.30
2017,07,17,01,56,12.20
2017,07,17,01,57,12.20
2017,07,17,01,58,12.20
2017,07,17,01,59,12.20
2017,07,17,02,00,12.20
2017,07,17,02,01,12.20
2017,07,17,02,02,12.20
2017,07,17,02,03,12.20
2017,07,17,02,04,12.20
2017,07,17,02,05,12.20
2017,07,17,02,06,12.10
2017,07,17,02,07,12.10
2017,07,17,02,08,12.10
2017,07,17,02,09,12.10
2017,07,17,02,10,12.10
2017,07,17,02,11,12.10
2017,07,17,02,12,12.10
2017,07,17,02,13,12.00
2017,07,17,02,14,12.00
2017,07,17,02,15,12.00
2017,07,17,02,16,11.90
2017,07,17,02,17,11.90
2017,07,17,02,18,11.90
2017,07,17,02,19,11.90
2017,07,17,02,20,11.90
2017,07,17,02,21,11.80
2017,07,17,02,22,11.80
2017,07,17,02,23,11.80
2017,07,17,02,24,11.80
2017,07,17,02,25,11.80
2017,07,17,02,26,11.70
2017,07,17,02,27,11.70
2017,07,17,02,28,11.70
2017,07,17,02,29,11.70
2017,07,17,02,30,11.70
2017,07,17,02,31,11.60
2017,07,17,02,32,11.60
2017,07,17,02,33,11.60
2017,07,17,02,34,11.60
2017,07,17,02,35,11.60
2017,07,17,02,36,11.60
2017,07,17,02,37,11.50
2017,07,17,02,38,11.50
2017,07,17,02,39,11.50
2017,07,17,02,40,11.50
2017,07,17,02,41,11.60
2017,07,17,02,42,11.60
2017,07,17,02,43,11.60
2017,07,17,02,44,11.60
2017,07,17,02,45,11.60
2017,07,17,02,46,11.60
2017,07,17,02,47,11.60
2017,07,17,02,48,11.60
2017,07,17,02,49,11.50
2017,07,17,02,50,11.50
2017,07,17,02,51,11.50
2017,07,17,02,52,11.50
2017,07,17,02,53,11.50
2017,07,17,02,54,11.50
2017,07,17,02,55,11.40
2017,07,17,02,56,11.40
2017,07,17,02,57,11.40
2017,07,17,02,58,11.40
2017,07,17,02,59,11.40
2017,07,17,03,00,11.40
2017,07,17,03,01,11.30
2017,07,17,03,02,11.30
2017,07,17,03,03,11.30
2017,07,17,03,04,11.30
2017,07,17,03,05,11.30
2017,07,17,03,06,11.30
2017,07,17,03,07,11.20
2017,07,17,03,08,11.20
2017,07,17,03,09,11.20
2017,07,17,03,10,11.20
2017,07,17,03,11,11.20
2017,07,17,03,12,11.20
2017,07,17,03,13,11.10
2017,07,17,03,14,11.10
2017,07,17,03,15,11.10
2017,07,17,03,16,11.10
2017,07,17,03,17,11.10
2017,07,17,03,18,11.00
2017,07,17,03,19,11.00
2017,07,17,03,20,11.00
2017,07,17,03,21,11.00
2017,07,17,03,22,10.90
2017,07,17,03,23,10.90
2017,07,17,03,24,10.90
2017,07,17,03,25,10.90
2017,07,17,03,26,10.90
2017,07,17,03,27,10.90
2017,07,17,03,28,10.90
2017,07,17,03,29,10.90
2017,07,17,03,30,10.90
2017,07,17,03,31,10.90
2017,07,17,03,32,10.80
2017,07,17,03,33,10.80
2017,07,17,03,34,10.80
2017,07,17,03,35,10.80
2017,07,17,03,36,10.80
2017,07,17,03,37,10.80
2017,07,17,03,38,10.80
2017,07,17,03,39,10.80
2017,07,17,03,40,10.70
2017,07,17,03,41,10.70
2017,07,17,03,42,10.70
2017,07,17,03,43,10.70
2017,07,17,03,44,10.70
2017,07,17,03,45,10.70
2017,07,17,03,46,10.70
2017,07,17,03,47,10.70
2017,07,17,03,48,10.70
2017,07,17,03,49,10.70
2017,07,17,03,50,10.70
2017,07,17,03,51,10.70
2017,07,17,03,52,10.70
2017,07,17,03,53,10.70
2017,07,17,03,54,10.70
2017,07,17,03,55,10.70
2017,07,17,03,56,10.70
2017,07,17,03,57,10.70
2017,07,17,03,58,10.70
2017,07,17,03,59,10.70
2017,07,17,04,00,10.70
2017,07,17,04,01,10.70
2017,07,17,04,02,10.70
2017,07,17,04,03,10.60
2017,07,17,04,04,10.60
2017,07,17,04,05,10.60
2017,07,17,04,06,10.60
2017,07,17,04,07,10.60
2017,07,17,04,08,10.60
2017,07,17,04,09,10.60
2017,07,17,04,10,10.60
2017,07,17,04,11,10.60
2017,07,17,04,12,10.60
2017,07,17,04,13,10.60
2017,07,17,04,14,10.60
2017,07,17,04,15,10.60
2017,07,17,04,16,10.50
2017,07,17,04,17,10.50
2017,07,17,04,18,10.50
2017,07,17,04,19,10.50
2017,07,17,04,20,10.40
2017,07,17,04,21,10.40
2017,07,17,04,22,10.40
2017,07,17,04,23,10.40
2017,07,17,04,24,10.40
2017,07,17,04,25,10.40
2017,07,17,04,26,10.40
2017,07,17,04,27,10.40
2017,07,17,04,28,10.40
2017,07,17,04,29,10.40
2017,07,17,04,30,10.40
2017,07,17,04,31,10.40
2017,07,17,04,32,10.40
2017,07,17,04,33,10.40
2017,07,17,04,34,10.40
2017,07,17,04,35,10.40
2017,07,17,04,36,10.40
2017,07,17,04,37,10.40
2017,07,17,04,38,10.40
2017,07,17,04,39,10.40
2017,07,17,04,40,10.40
2017,07,17,04,41,10.30
2017,07,17,04,42,10.40
2017,07,17,04,43,10.40
2017,07,17,04,44,10.40
2017,07,17,04,45,10.30
2017,07,17,04,46,10.30
2017,07,17,04,47,10.30
2017,07,17,04,48,10.30
2017,07,17,04,49,10.30
2017,07,17,04,50,10.20
2017,07,17,04,51,10.20
2017,07,17,04,52,10.20
2017,07,17,04,53,10.20
2017,07,17,04,54,10.20
2017,07,17,04,55,10.20
2017,07,17,04,56,10.10
2017,07,17,04,57,10.10
2017,07,17,04,58,10.10
2017,07,17,04,59,10.10
2017,07,17,05,00,10.00
2017,07,17,05,01,10.00
2017,07,17,05,02,9.90
2017,07,17,05,03,9.90
2017,07,17,05,04,9.90
2017,07,17,05,05,9.90
2017,07,17,05,06,9.90
2017,07,17,05,07,9.80
2017,07,17,05,08,9.80
2017,07,17,05,09,9.80
2017,07,17,05,10,9.80
2017,07,17,05,11,9.80
2017,07,17,05,12,9.80
2017,07,17,05,13,9.80
2017,07,17,05,14,9.80
2017,07,17,05,15,9.80
2017,07,17,05,16,9.80
2017,07,17,05,17,9.80
2017,07,17,05,18,9.80
2017,07,17,05,19,9.80
2017,07,17,05,20,9.80
2017,07,17,05,21,9.80
2017,07,17,05,22,9.80
2017,07,17,05,23,9.80
2017,07,17,05,24,9.80
2017,07,17,05,25,9.80
2017,07,17,05,26,9.80
2017,07,17,05,27,9.80
2017,07,17,05,28,9.80
2017,07,17,05,29,9.80
2017,07,17,05,30,9.80
2017,07,17,05,31,9.80
2017,07,17,05,32,9.70
2017,07,17,05,33,9.70
2017,07,17,05,34,9.70
2017,07,17,05,35,9.70
2017,07,17,05,36,9.70
2017,07,17,05,37,9.70
2017,07,17,05,38,9.70
2017,07,17,05,39,9.70
2017,07,17,05,40,9.70
2017,07,17,05,41,9.70
2017,07,17,05,42,9.70
2017,07,17,05,43,9.60
2017,07,17,05,44,9.60
2017,07,17,05,45,9.60
2017,07,17,05,46,9.60
2017,07,17,05,47,9.60
2017,07,17,05,48,9.60
2017,07,17,05,49,9.60
2017,07,17,05,50,9.60
2017,07,17,05,51,9.60
2017,07,17,05,52,9.60
2017,07,17,05,53,9.60
2017,07,17,05,54,9.60
2017,07,17,05,55,9.60
2017,07,17,05,56,9.60
2017,07,17,05,57,9.60
2017,07,17,05,58,9.60
2017,07,17,05,59,9.60
2017,07,17,06,00,9.70
2017,07,17,06,01,9.70
2017,07,17,06,02,9.70
2017,07,17,06,03,9.70
2017,07,17,06,04,9.70
2017,07,17,06,05,9.80
2017,07,17,06,06,9.80
2017,07,17,06,07,9.80
2017,07,17,06,08,9.80
2017,07,17,06,09,9.80
2017,07,17,06,10,9.90
2017,07,17,06,11,9.90
2017,07,17,06,12,9.90
2017,07,17,06,13,9.90
2017,07,17,06,14,9.90
2017,07,17,06,15,9.90
2017,07,17,06,16,9.90
2017,07,17,06,17,9.90
2017,07,17,06,18,9.90
2017,07,17,06,19,9.90
2017,07,17,06,20,9.90
2017,07,17,06,21,9.90
2017,07,17,06,22,9.90
2017,07,17,06,23,9.90
2017,07,17,06,24,10.00
2017,07,17,06,25,10.00
2017,07,17,06,26,10.00
2017,07,17,06,27,10.00
2017,07,17,06,28,10.00
2017,07,17,06,29,10.00
2017,07,17,06,30,10.00
2017,07,17,06,31,10.00
2017,07,17,06,32,10.00
2017,07,17,06,33,10.00
2017,07,17,06,34,10.00
2017,07,17,06,35,10.10
2017,07,17,06,36,10.10
2017,07,17,06,37,10.10
2017,07,17,06,38,10.10
2017,07,17,06,39,10.10
2017,07,17,06,40,10.10
2017,07,17,06,41,10.10
2017,07,17,06,42,10.10
2017,07,17,06,43,10.20
2017,07,17,06,44,10.20
2017,07,17,06,45,10.20
2017,07,17,06,46,10.20
2017,07,17,06,47,10.30
2017,07,17,06,48,10.30
2017,07,17,06,49,10.30
2017,07,17,06,50,10.30
2017,07,17,06,51,10.30
2017,07,17,06,52,10.30
2017,07,17,06,53,10.40
2017,07,17,06,54,10.40
2017,07,17,06,55,10.40
2017,07,17,06,56,10.40
2017,07,17,06,57,10.40
2017,07,17,06,58,10.50
2017,07,17,06,59,10.50
2017,07,17,07,00,10.50
2017,07,17,07,01,10.60
2017,07,17,07,02,10.60
2017,07,17,07,03,10.60
2017,07,17,07,04,10.70
2017,07,17,07,05,10.70
2017,07,17,07,06,10.70
2017,07,17,07,07,10.70
2017,07,17,07,08,10.70
2017,07,17,07,09,10.80
2017,07,17,07,10,10.80
2017,07,17,07,11,10.80
2017,07,17,07,12,10.90
2017,07,17,07,13,10.90
2017,07,17,07,14,11.00
2017,07,17,07,15,11.00
2017,07,17,07,16,11.10
2017,07,17,07,17,11.10
2017,07,17,07,18,11.20
2017,07,17,07,19,11.20
2017,07,17,07,20,11.30
2017,07,17,07,21,11.40
2017,07,17,07,22,11.50
2017,07,17,07,23,11.50
2017,07,17,07,24,11.60
2017,07,17,07,25,11.70
2017,07,17,07,26,11.70
2017,07,17,07,27,11.80
2017,07,17,07,28,11.80
2017,07,17,07,29,11.90
2017,07,17,07,30,12.00
2017,07,17,07,31,12.10
2017,07,17,07,32,12.20
2017,07,17,07,33,12.30
2017,07,17,07,34,12.40
2017,07,17,07,35,12.50
2017,07,17,07,36,12.50
2017,07,17,07,37,12.60
2017,07,17,07,38,12.60
2017,07,17,07,39,12.70
2017,07,17,07,40,12.70
2017,07,17,07,41,12.80
2017,07,17,07,42,12.90
2017,07,17,07,43,12.90
2017,07,17,07,44,13.00
2017,07,17,07,45,13.10
2017,07,17,07,46,13.10
2017,07,17,07,47,13.20
2017,07,17,07,48,13.20
2017,07,17,07,49,13.30
2017,07,17,07,50,13.30
2017,07,17,07,51,13.30
2017,07,17,07,52,13.40
2017,07,17,07,53,13.40
2017,07,17,07,54,13.50
2017,07,17,07,55,13.60
2017,07,17,07,56,13.70
2017,07,17,07,57,13.70
2017,07,17,07,58,13.70
2017,07,17,07,59,13.70
2017,07,17,08,00,13.80
2017,07,17,08,01,13.80
2017,07,17,08,02,13.90
2017,07,17,08,03,14.00
2017,07,17,08,04,14.10
2017,07,17,08,05,14.20
2017,07,17,08,06,14.30
2017,07,17,08,07,14.40
2017,07,17,08,08,14.50
2017,07,17,08,09,14.60
2017,07,17,08,10,14.70
2017,07,17,08,11,14.80
2017,07,17,08,12,14.80
2017,07,17,08,13,14.90
2017,07,17,08,14,15.00
2017,07,17,08,15,15.10
2017,07,17,08,16,15.10
2017,07,17,08,17,15.20
2017,07,17,08,18,15.20
2017,07,17,08,19,15.30
2017,07,17,08,20,15.40
2017,07,17,08,21,15.50
2017,07,17,08,22,15.60
2017,07,17,08,23,15.70
2017,07,17,08,24,15.70
2017,07,17,08,25,15.80
2017,07,17,08,26,15.90
2017,07,17,08,27,16.00
2017,07,17,08,28,16.10
2017,07,17,08,29,16.30
2017,07,17,08,30,16.40
2017,07,17,08,31,16.50
2017,07,17,08,32,16.60
2017,07,17,08,33,16.70
2017,07,17,08,34,16.80
2017,07,17,08,35,16.90
2017,07,17,08,36,17.00
2017,07,17,08,37,17.10
2017,07,17,08,38,17.20
2017,07,17,08,39,17.20
2017,07,17,08,40,17.30
2017,07,17,08,41,17.40
2017,07,17,08,42,17.40
2017,07,17,08,43,17.50
2017,07,17,08,44,17.50
2017,07,17,08,45,17.50
2017,07,17,08,46,17.60
2017,07,17,08,47,17.60
2017,07,17,08,48,17.60
2017,07,17,08,49,17.70
2017,07,17,08,50,17.70
2017,07,17,08,51,17.80
2017,07,17,08,52,17.80
2017,07,17,08,53,17.90
2017,07,17,08,54,17.90
2017,07,17,08,55,18.00
2017,07,17,08,56,18.00
2017,07,17,08,57,18.10
2017,07,17,08,58,18.10
2017,07,17,08,59,18.20
2017,07,17,09,00,18.20
2017,07,17,09,01,18.30
2017,07,17,09,02,18.40
2017,07,17,09,03,18.50
2017,07,17,09,04,18.50
2017,07,17,09,05,18.60
2017,07,17,09,06,18.70
2017,07,17,09,07,18.70
2017,07,17,09,08,18.80
2017,07,17,09,09,18.80
2017,07,17,09,10,18.90
2017,07,17,09,11,18.90
2017,07,17,09,12,18.90
2017,07,17,09,13,18.90
2017,07,17,09,14,19.00
2017,07,17,09,15,19.00
2017,07,17,09,16,19.00
2017,07,17,09,17,19.00
2017,07,17,09,18,19.10
2017,07,17,09,19,19.10
2017,07,17,09,20,19.10
2017,07,17,09,21,19.10
2017,07,17,09,22,19.10
2017,07,17,09,23,19.10
2017,07,17,09,24,19.10
2017,07,17,09,25,19.20
2017,07,17,09,26,19.20
2017,07,17,09,27,19.10
2017,07,17,09,28,19.10
2017,07,17,09,29,19.10
2017,07,17,09,30,19.20
2017,07,17,09,31,19.20
2017,07,17,09,32,19.20
2017,07,17,09,33,19.20
2017,07,17,09,34,19.20
2017,07,17,09,35,19.20
2017,07,17,09,36,19.20
2017,07,17,09,37,19.20
2017,07,17,09,38,19.20
2017,07,17,09,39,19.20
2017,07,17,09,40,19.20
2017,07,17,09,41,19.20
2017,07,17,09,42,19.20
2017,07,17,09,43,19.20
2017,07,17,09,44,19.20
2017,07,17,09,45,19.30
2017,07,17,09,46,19.30
2017,07,17,09,47,19.40
2017,07,17,09,48,19.40
2017,07,17,09,49,19.40
2017,07,17,09,50,19.40
2017,07,17,09,51,19.40
2017,07,17,09,52,19.40
2017,07,17,09,53,19.40
2017,07,17,09,54,19.50
2017,07,17,09,55,19.50
2017,07,17,09,56,19.50
2017,07,17,09,57,19.50
2017,07,17,09,58,19.40
2017,07,17,09,59,19.50
2017,07,17,10,00,19.50
2017,07,17,10,01,19.60
2017,07,17,10,02,19.60
2017,07,17,10,03,19.70
2017,07,17,10,04,19.60
2017,07,17,10,05,19.60
2017,07,17,10,06,19.60
2017,07,17,10,07,19.60
2017,07,17,10,08,19.60
2017,07,17,10,09,19.60
2017,07,17,10,10,19.70
2017,07,17,10,11,19.70
2017,07,17,10,12,19.80
2017,07,17,10,13,19.80
2017,07,17,10,14,19.80
2017,07,17,10,15,19.80
2017,07,17,10,16,19.80
2017,07,17,10,17,19.80
2017,07,17,10,18,19.80
2017,07,17,10,19,19.70
2017,07,17,10,20,19.50
2017,07,17,10,21,19.50
2017,07,17,10,22,19.40
2017,07,17,10,23,19.30
2017,07,17,10,24,19.30
2017,07,17,10,25,19.30
2017,07,17,10,26,19.20
2017,07,17,10,27,19.20
2017,07,17,10,28,19.20
2017,07,17,10,29,19.30
2017,07,17,10,30,19.40
2017,07,17,10,31,19.50
2017,07,17,10,32,19.60
2017,07,17,10,33,19.60
2017,07,17,10,34,19.70
2017,07,17,10,35,19.80
2017,07,17,10,36,19.90
2017,07,17,10,37,20.00
2017,07,17,10,38,20.10
2017,07,17,10,39,20.20
2017,07,17,10,40,20.20
2017,07,17,10,41,20.30
2017,07,17,10,42,20.30
2017,07,17,10,43,20.20
2017,07,17,10,44,20.20
2017,07,17,10,45,20.20
2017,07,17,10,46,20.10
2017,07,17,10,47,20.10
2017,07,17,10,48,20.10
2017,07,17,10,49,20.00
2017,07,17,10,50,20.00
2017,07,17,10,51,20.10
2017,07,17,10,52,20.10
2017,07,17,10,53,20.10
2017,07,17,10,54,20.20
2017,07,17,10,55,20.20
2017,07,17,10,56,20.20
2017,07,17,10,57,20.10
2017,07,17,10,58,20.10
2017,07,17,10,59,20.10
2017,07,17,11,00,20.00
2017,07,17,11,01,20.10
2017,07,17,11,02,20.10
2017,07,17,11,03,20.20
2017,07,17,11,04,20.20
2017,07,17,11,05,20.30
2017,07,17,11,06,20.40
2017,07,17,11,07,20.40
2017,07,17,11,08,20.40
2017,07,17,11,09,20.50
2017,07,17,11,10,20.50
2017,07,17,11,11,20.50
2017,07,17,11,12,20.50
2017,07,17,11,13,20.60
2017,07,17,11,14,20.60
2017,07,17,11,15,20.60
2017,07,17,11,16,20.60
2017,07,17,11,17,20.60
2017,07,17,11,18,20.70
2017,07,17,11,19,20.60
2017,07,17,11,20,20.60
2017,07,17,11,21,20.60
2017,07,17,11,22,20.60
2017,07,17,11,23,20.60
2017,07,17,11,24,20.70
2017,07,17,11,25,20.70
2017,07,17,11,26,20.80
2017,07,17,11,27,20.80
2017,07,17,11,28,20.80
2017,07,17,11,29,20.80
2017,07,17,11,30,20.80
2017,07,17,11,31,20.90
2017,07,17,11,32,20.90
2017,07,17,11,33,20.90
2017,07,17,11,34,20.90
2017,07,17,11,35,21.00
2017,07,17,11,36,21.00
2017,07,17,11,37,21.10
2017,07,17,11,38,21.10
2017,07,17,11,39,21.20
2017,07,17,11,40,21.20
2017,07,17,11,41,21.20
2017,07,17,11,42,21.20
2017,07,17,11,43,21.30
2017,07,17,11,44,21.30
2017,07,17,11,45,21.30
2017,07,17,11,46,21.30
2017,07,17,11,47,21.30
2017,07,17,11,48,21.30
2017,07,17,11,49,21.30
2017,07,17,11,50,21.30
2017,07,17,11,51,21.30
2017,07,17,11,52,21.30
2017,07,17,11,53,21.30
2017,07,17,11,54,21.20
2017,07,17,11,55,21.20
2017,07,17,11,56,21.20
2017,07,17,11,57,21.20
2017,07,17,11,58,21.30
2017,07,17,11,59,21.40
2017,07,17,12,00,21.50
2017,07,17,12,01,21.60
2017,07,17,12,02,21.70
2017,07,17,12,03,21.70
2017,07,17,12,04,21.70
2017,07,17,12,05,21.70
2017,07,17,12,06,21.70
2017,07,17,12,07,21.70
2017,07,17,12,08,21.80
2017,07,17,12,09,21.90
2017,07,17,12,10,22.00
2017,07,17,12,11,22.10
2017,07,17,12,12,22.10
2017,07,17,12,13,22.20
2017,07,17,12,14,22.30
2017,07,17,12,15,22.30
2017,07,17,12,16,22.40
2017,07,17,12,17,22.30
2017,07,17,12,18,22.20
2017,07,17,12,19,22.10
2017,07,17,12,20,22.00
2017,07,17,12,21,21.90
2017,07,17,12,22,21.90
2017,07,17,12,23,21.90
2017,07,17,12,24,22.00
2017,07,17,12,25,21.90
2017,07,17,12,26,21.80
2017,07,17,12,27,21.60
2017,07,17,12,28,21.10
2017,07,17,12,29,20.80
2017,07,17,12,30,20.50
2017,07,17,12,31,20.10
2017,07,17,12,32,19.80
2017,07,17,12,33,19.60
2017,07,17,12,34,19.40
2017,07,17,12,35,19.30
2017,07,17,12,36,19.20
2017,07,17,12,37,19.00
2017,07,17,12,38,18.90
2017,07,17,12,39,18.80
2017,07,17,12,40,18.70
2017,07,17,12,41,18.70
2017,07,17,12,42,18.80
2017,07,17,12,43,18.80
2017,07,17,12,44,18.80
2017,07,17,12,45,18.70
2017,07,17,12,46,18.70
2017,07,17,12,47,18.80
2017,07,17,12,48,18.80
2017,07,17,12,49,18.90
2017,07,17,12,50,18.90
2017,07,17,12,51,18.90
2017,07,17,12,52,18.90
2017,07,17,12,53,19.00
2017,07,17,12,54,19.00
2017,07,17,12,55,18.90
2017,07,17,12,56,18.80
2017,07,17,12,57,18.80
2017,07,17,12,58,18.90
2017,07,17,12,59,19.00
2017,07,17,13,00,19.10
2017,07,17,13,01,19.20
2017,07,17,13,02,19.30
2017,07,17,13,03,19.20
2017,07,17,13,04,19.10
2017,07,17,13,05,19.10
2017,07,17,13,06,19.00
2017,07,17,13,07,19.00
2017,07,17,13,08,18.80
2017,07,17,13,09,18.70
2017,07,17,13,10,18.60
2017,07,17,13,11,18.50
2017,07,17,13,12,18.50
2017,07,17,13,13,18.40
2017,07,17,13,14,18.30
2017,07,17,13,15,18.20
2017,07,17,13,16,18.20
2017,07,17,13,17,18.20
2017,07,17,13,18,18.30
2017,07,17,13,19,18.30
2017,07,17,13,20,18.40
2017,07,17,13,21,18.50
2017,07,17,13,22,18.50
2017,07,17,13,23,18.60
2017,07,17,13,24,18.70
2017,07,17,13,25,18.70
2017,07,17,13,26,18.70
2017,07,17,13,27,18.80
2017,07,17,13,28,18.80
2017,07,17,13,29,18.80
2017,07,17,13,30,18.80
2017,07,17,13,31,18.80
2017,07,17,13,32,18.80
2017,07,17,13,33,18.80
2017,07,17,13,34,18.80
2017,07,17,13,35,18.90
2017,07,17,13,36,18.90
2017,07,17,13,37,18.90
2017,07,17,13,38,18.80
2017,07,17,13,39,18.80
2017,07,17,13,40,18.80
2017,07,17,13,41,18.80
2017,07,17,13,42,18.90
2017,07,17,13,43,19.00
2017,07,17,13,44,19.10
2017,07,17,13,45,19.10
2017,07,17,13,46,19.10
2017,07,17,13,47,19.00
2017,07,17,13,48,19.00
2017,07,17,13,49,18.90
2017,07,17,13,50,18.80
2017,07,17,13,51,18.70
2017,07,17,13,52,18.70
2017,07,17,13,53,18.70
2017,07,17,13,54,18.70
2017,07,17,13,55,18.70
2017,07,17,13,56,18.70
2017,07,17,13,57,18.70
2017,07,17,13,58,18.80
2017,07,17,13,59,18.90
2017,07,17,14,00,19.00
2017,07,17,14,01,19.00
2017,07,17,14,02,19.10
2017,07,17,14,03,19.10
2017,07,17,14,04,19.20
2017,07,17,14,05,19.30
2017,07,17,14,06,19.40
2017,07,17,14,07,19.50
2017,07,17,14,08,19.60
2017,07,17,14,09,19.60
2017,07,17,14,10,19.70
2017,07,17,14,11,19.80
2017,07,17,14,12,19.90
2017,07,17,14,13,19.90
2017,07,17,14,14,19.90
2017,07,17,14,15,19.90
2017,07,17,14,16,19.90
2017,07,17,14,17,19.90
2017,07,17,14,18,20.00
2017,07,17,14,19,20.10
2017,07,17,14,20,20.00
2017,07,17,14,21,19.90
2017,07,17,14,22,19.90
2017,07,17,14,23,19.80
2017,07,17,14,24,19.80
2017,07,17,14,25,19.90
2017,07,17,14,26,20.00
2017,07,17,14,27,20.10
2017,07,17,14,28,20.10
2017,07,17,14,29,20.10
2017,07,17,14,30,20.20
2017,07,17,14,31,20.30
2017,07,17,14,32,20.30
2017,07,17,14,33,20.40
2017,07,17,14,34,20.40
2017,07,17,14,35,20.40
2017,07,17,14,36,20.40
2017,07,17,14,37,20.40
2017,07,17,14,38,20.50
2017,07,17,14,39,20.50
2017,07,17,14,40,20.70
2017,07,17,14,41,20.80
2017,07,17,14,42,20.90
2017,07,17,14,43,20.90
2017,07,17,14,44,20.90
2017,07,17,14,45,20.80
2017,07,17,14,46,20.80
2017,07,17,14,47,20.70
2017,07,17,14,48,20.60
2017,07,17,14,49,20.60
2017,07,17,14,50,20.60
2017,07,17,14,51,20.50
2017,07,17,14,52,20.50
2017,07,17,14,53,20.40
2017,07,17,14,54,20.50
2017,07,17,14,55,20.50
2017,07,17,14,56,20.50
2017,07,17,14,57,20.60
2017,07,17,14,58,20.70
2017,07,17,14,59,20.80
2017,07,17,15,00,20.90
2017,07,17,15,01,21.00
2017,07,17,15,02,21.00
2017,07,17,15,03,21.10
2017,07,17,15,04,21.10
2017,07,17,15,05,21.20
2017,07,17,15,06,21.30
2017,07,17,15,07,21.40
2017,07,17,15,08,21.40
2017,07,17,15,09,21.50
2017,07,17,15,10,21.50
2017,07,17,15,11,21.60
2017,07,17,15,12,21.60
2017,07,17,15,13,21.60
2017,07,17,15,14,21.60
2017,07,17,15,15,21.70
2017,07,17,15,16,21.70
2017,07,17,15,17,21.70
2017,07,17,15,18,21.70
2017,07,17,15,19,21.80
2017,07,17,15,20,21.80
2017,07,17,15,21,21.80
2017,07,17,15,22,21.80
2017,07,17,15,23,21.60
2017,07,17,15,24,21.60
2017,07,17,15,25,21.60
2017,07,17,15,26,21.60
2017,07,17,15,27,21.70
2017,07,17,15,28,21.80
2017,07,17,15,29,21.90
2017,07,17,15,30,21.80
2017,07,17,15,31,21.70
2017,07,17,15,32,21.70
2017,07,17,15,33,21.70
2017,07,17,15,34,21.70
2017,07,17,15,35,21.60
2017,07,17,15,36,21.50
2017,07,17,15,37,21.50
2017,07,17,15,38,21.40
2017,07,17,15,39,21.20
2017,07,17,15,40,21.00
2017,07,17,15,41,20.80
2017,07,17,15,42,20.70
2017,07,17,15,43,20.60
2017,07,17,15,44,20.40
2017,07,17,15,45,20.40
2017,07,17,15,46,20.30
2017,07,17,15,47,20.30
2017,07,17,15,48,20.30
2017,07,17,15,49,20.20
2017,07,17,15,50,20.20
2017,07,17,15,51,20.20
2017,07,17,15,52,20.20
2017,07,17,15,53,20.20
2017,07,17,15,54,20.20
2017,07,17,15,55,20.20
2017,07,17,15,56,20.30
2017,07,17,15,57,20.30
2017,07,17,15,58,20.30
2017,07,17,15,59,20.30
2017,07,17,16,00,20.30
2017,07,17,16,01,20.30
2017,07,17,16,02,20.30
2017,07,17,16,03,20.30
2017,07,17,16,04,20.30
2017,07,17,16,05,20.30
2017,07,17,16,06,20.20
2017,07,17,16,07,20.10
2017,07,17,16,08,20.10
2017,07,17,16,09,20.10
2017,07,17,16,10,20.00
2017,07,17,16,11,20.00
2017,07,17,16,12,20.00
2017,07,17,16,13,19.90
2017,07,17,16,14,19.90
2017,07,17,16,15,19.80
2017,07,17,16,16,19.70
2017,07,17,16,17,19.70
2017,07,17,16,18,19.70
2017,07,17,16,19,19.60
2017,07,17,16,20,19.60
2017,07,17,16,21,19.60
2017,07,17,16,22,19.70
2017,07,17,16,23,19.70
2017,07,17,16,24,19.70
2017,07,17,16,25,19.70
2017,07,17,16,26,19.70
2017,07,17,16,27,19.70
2017,07,17,16,28,19.70
2017,07,17,16,29,19.80
2017,07,17,16,30,19.80
2017,07,17,16,31,19.80
2017,07,17,16,32,19.80
2017,07,17,16,33,19.90
2017,07,17,16,34,19.80
2017,07,17,16,35,19.80
2017,07,17,16,36,19.80
2017,07,17,16,37,19.80
2017,07,17,16,38,19.80
2017,07,17,16,39,19.80
2017,07,17,16,40,19.80
2017,07,17,16,41,19.90
2017,07,17,16,42,19.90
2017,07,17,16,43,19.80
2017,07,17,16,44,19.80
2017,07,17,16,45,19.80
2017,07,17,16,46,19.90
2017,07,17,16,47,19.90
2017,07,17,16,48,19.90
2017,07,17,16,49,20.00
2017,07,17,16,50,20.00
2017,07,17,16,51,20.00
2017,07,17,16,52,20.10
2017,07,17,16,53,20.10
2017,07,17,16,54,20.10
2017,07,17,16,55,20.10
2017,07,17,16,56,20.10
2017,07,17,16,57,20.10
2017,07,17,16,58,20.20
2017,07,17,16,59,20.20
2017,07,17,17,00,20.30
2017,07,17,17,01,20.30
2017,07,17,17,02,20.30
2017,07,17,17,03,20.30
2017,07,17,17,04,20.30
2017,07,17,17,05,20.30
2017,07,17,17,06,20.30
2017,07,17,17,07,20.30
2017,07,17,17,08,20.30
2017,07,17,17,09,20.30
2017,07,17,17,10,20.30
2017,07,17,17,11,20.30
2017,07,17,17,12,20.30
2017,07,17,17,13,20.30
2017,07,17,17,14,20.30
2017,07,17,17,15,20.30
2017,07,17,17,16,20.30
2017,07,17,17,17,20.30
2017,07,17,17,18,20.30
2017,07,17,17,19,20.30
2017,07,17,17,20,20.30
2017,07,17,17,21,20.40
2017,07,17,17,22,20.50
2017,07,17,17,23,20.50